sat.trackr.live / text

‹ back to catalog

STARLINK-5369

NORAD 54837 · 2022-177T

PAYLOAD ACTIVE UNKNOWN

§ Identity

Operator
Country
US
Launch date
2022-12-28
Launch site
AFETR
Launch vehicle
Mass (kg)
RCS (m²)

Purposes: comms

External: N2YO · Heavens-Above · Gunter

§ Orbital elements

Epoch: 2026-05-26T02:13:32.903616Z

Period
87.77 min
Inclination
42.9869°
Eccentricity
0.0008486
Mean motion
16.40586181 rev/d
Perigee alt
158.7 km
Apogee alt
169.8 km
Semi-major
6,542.4 km
B*
4.7067e-4
RAAN
34.7937°
Arg perigee
265.2687°
Mean anomaly
94.7237°
Rev number
18,903

§ Raw data

STARLINK-53691 54837U 22177T   26146.09274194  .07267415  93102-5  47067-3 0  99902 54837  42.9869  34.7937 0008486 265.2687  94.7237 16.40586181189035

JSON: /api/v1/satellites/54837 · /tle

For live sub-satellite position, see the globe view (requires WebGL).

§ Visibility from observer

Set your observer location to see the next 7 days of passes ≥ 10°. The values pass through the URL so the page stays shareable.

No JS? Fill the form by hand. The geolocation button needs JavaScript.